Orbital elements of COSMOS 2251 DEB
| Launched | 15 June 1993 |
| Flight ended | – |
| Launch site | Plesetsk Missile and Space Complex, Russia |
| Owner | Commonwealth of Independent States (former USSR) |
| NORAD ID | 33758 |
| Date fetched |
Epoch osculation |
Inc. [°] |
Ecc. | RA asc node [hr] |
Arg Peri. [°] |
Mean anom [°] |
Mean motion [rev/day] |
Abs. mag |
| Date fetched |
Epoch osculation |
Inc. [°] |
Ecc. | RA asc node [hr] |
Arg Peri. [°] |
Mean anom [°] |
Mean motion [rev/day] |
Abs. mag |
| 2026 May 06 17:57 | 2026 May 05 10:59:52 | 74.0273 | 0.00157 | 20.2715 | 340.9094 | 45.6905 | 14.52659 | – |
| 2026 May 05 17:57 | 2026 May 05 10:59:52 | 74.0273 | 0.00157 | 20.2715 | 340.9094 | 45.6905 | 14.52659 | – |
| 2026 May 04 17:57 | 2026 Apr 30 13:46:50 | 74.0273 | 0.00156 | 20.8859 | 351.3303 | 45.6905 | 14.52659 | – |
| 2026 May 03 17:57 | 2026 Apr 30 13:46:50 | 74.0273 | 0.00156 | 20.8859 | 351.3303 | 45.6905 | 14.52659 | – |
| 2026 May 02 17:57 | 2026 Apr 30 13:46:50 | 74.0273 | 0.00156 | 20.8859 | 351.3303 | 45.6905 | 14.52659 | – |
| 2026 May 01 17:56 | 2026 Apr 30 13:46:50 | 74.0273 | 0.00156 | 20.8859 | 351.3303 | 45.6905 | 14.52659 | – |
| 2026 Apr 30 17:56 | 2026 Apr 30 13:46:50 | 74.0273 | 0.00156 | 20.8859 | 351.3303 | 45.6905 | 14.52659 | – |
| 2026 Apr 29 17:57 | 2026 Apr 24 01:12:19 | 74.0272 | 0.00154 | 21.7065 | 5.1313 | 45.6905 | 14.52659 | – |
| 2026 Apr 28 17:56 | 2026 Apr 24 01:12:19 | 74.0272 | 0.00154 | 21.7065 | 5.1313 | 45.6905 | 14.52659 | – |
| 2026 Apr 27 17:58 | 2026 Apr 24 01:12:19 | 74.0272 | 0.00154 | 21.7065 | 5.1313 | 45.6905 | 14.52659 | – |
| 2026 Apr 26 17:58 | 2026 Apr 24 01:12:19 | 74.0272 | 0.00154 | 21.7065 | 5.1313 | 45.6905 | 14.52659 | – |
| 2026 Apr 25 17:58 | 2026 Apr 24 01:12:19 | 74.0272 | 0.00154 | 21.7065 | 5.1313 | 45.6905 | 14.52659 | – |
| 2026 Apr 24 17:59 | 2026 Apr 24 01:12:19 | 74.0272 | 0.00154 | 21.7065 | 5.1313 | 45.6905 | 14.52659 | – |
| 2026 Apr 23 17:57 | 2026 Apr 19 08:55:00 | 74.0278 | 0.00153 | 22.2950 | 14.8803 | 45.6905 | 14.52659 | – |
| 2026 Apr 22 17:57 | 2026 Apr 19 08:55:00 | 74.0278 | 0.00153 | 22.2950 | 14.8803 | 45.6905 | 14.52659 | – |
| 2026 Apr 21 17:57 | 2026 Apr 19 08:55:00 | 74.0278 | 0.00153 | 22.2950 | 14.8803 | 45.6905 | 14.52659 | – |
| 2026 Apr 20 17:57 | 2026 Apr 19 08:55:00 | 74.0278 | 0.00153 | 22.2950 | 14.8803 | 45.6905 | 14.52659 | – |
| 2026 Apr 19 17:58 | 2026 Apr 19 08:55:00 | 74.0278 | 0.00153 | 22.2950 | 14.8803 | 45.6905 | 14.52659 | – |
| 2026 Apr 18 17:56 | 2026 Apr 13 02:22:45 | 74.0299 | 0.00151 | 23.0839 | 27.9910 | 45.6905 | 14.52659 | – |
| 2026 Apr 16 17:57 | 2026 Apr 13 02:22:45 | 74.0299 | 0.00151 | 23.0839 | 27.9910 | 45.6905 | 14.52659 | – |
| 2026 Apr 14 17:57 | 2026 Apr 13 02:22:45 | 74.0299 | 0.00151 | 23.0839 | 27.9910 | 45.6905 | 14.52659 | – |
| 2026 Apr 13 17:57 | 2026 Apr 13 02:22:45 | 74.0299 | 0.00151 | 23.0839 | 27.9910 | 45.6905 | 14.52659 | – |
| 2026 Apr 12 17:57 | 2026 Apr 08 16:01:06 | 74.0299 | 0.00149 | 23.6412 | 37.3683 | 45.6905 | 14.52659 | – |
| 2026 Apr 11 17:57 | 2026 Apr 08 16:01:06 | 74.0299 | 0.00149 | 23.6412 | 37.3683 | 45.6905 | 14.52659 | – |
| 2026 Apr 10 17:58 | 2026 Apr 08 16:01:06 | 74.0299 | 0.00149 | 23.6412 | 37.3683 | 45.6905 | 14.52659 | – |
| 2026 Apr 09 18:01 | 2026 Apr 08 16:01:06 | 74.0299 | 0.00149 | 23.6412 | 37.3683 | 45.6905 | 14.52659 | – |